Weather History for EHWO - February, 2014

Change the Weather History Date:

Sunday, February 16, 2014

  Actual Average Record
Temperature  
Mean Temperature 42 °F -  
Max Temperature 50 °F 46 °F 60 °F (2007)
Min Temperature 33 °F 35 °F 23 °F (2003)
Degree Days  
Heating Degree Days 22    
Moisture  
Dew Point 38 °F    
Average Humidity 79    
Maximum Humidity 100    
Minimum Humidity 43    
Precipitation  
Precipitation 0.00 in - - ()
Sea Level Pressure  
Sea Level Pressure 29.74 in    
Wind  
Wind Speed 11 mph ()    
Max Wind Speed 20 mph    
Max Gust Speed -    
Visibility 8.8 miles    
Events Rain    
Averages and records for this station are not official NWS values.
T = Trace of Precipitation, MM = Missing Value Source: Averaged Metar Reports

Daily Weather History Graph

Daily Weather History Graph

Search for Another Location

Airport or City:

Trip Planner

Search our weather history database for the weather conditions in past years. The results will help you decide how hot, cold, wet, or windy it might be!

Date:

Astronomy

Feb. 16, 2014 Rise Set
Actual Time 7:54 AM CET 5:59 PM CET
Civil Twilight 7:20 AM CET 6:33 PM CET
Nautical Twilight 6:41 AM CET 7:12 PM CET
Astronomical Twilight 6:02 AM CET 7:51 PM CET
Moon 7:58 PM CET (2/16) 8:02 AM CET (2/16)
Length of Visible Light 11h 13m
Length of Day
10h 04m
Full, 98% of the Moon is Illuminated
Feb 16
Full
Feb 22
Last Quarter
Mar 1
New
Mar 8
First Quarter
Mar 16
Full

Hourly Weather History & Observations

Time (CET) Temp. Windchill Dew Point Humidity Pressure Visibility Wind Dir Wind Speed Gust Speed Precip Events Conditions
12:00 AM 44 °F - 41 °F 83% 29.57 in 6 mi SW 15.7 mph - - Rain Light Rain Showers
12:25 AM 44.6 °F 38.1 °F 39.2 °F 81% 29.56 in 6.2 mi SW 13.8 mph - N/A   Overcast
12:55 AM 44.6 °F 38.4 °F 39.2 °F 81% 29.56 in 6.2 mi SW 12.7 mph - N/A   Overcast
1:00 AM 44 °F - 39 °F 77% 29.59 in 22 mi SW 13.4 mph - - Rain Rain
1:25 AM 42.8 °F 36.6 °F 39.2 °F 87% 29.59 in 6.2 mi SW 11.5 mph - N/A   Mostly Cloudy
1:55 AM 42.8 °F 36.6 °F 39.2 °F 87% 29.59 in 6.2 mi SW 11.5 mph - N/A   Overcast
2:00 AM 43 °F - 39 °F 82% 29.61 in 22 mi SW 11.2 mph - -   Overcast
2:25 AM 42.8 °F 37.0 °F 39.2 °F 87% 29.59 in 6.2 mi SSW 10.4 mph - N/A   Mostly Cloudy
2:55 AM 42.8 °F 37.0 °F 39.2 °F 87% 29.62 in 6.2 mi SW 10.4 mph - N/A   Partly Cloudy
3:00 AM 43 °F - 39 °F 82% 29.63 in 18 mi SW 11.2 mph - -   Scattered Clouds
3:25 AM 42.8 °F 36.6 °F 39.2 °F 87% 29.62 in 6.2 mi SW 11.5 mph - N/A   Mostly Cloudy
3:55 AM 42.8 °F 36.6 °F 39.2 °F 87% 29.62 in 6.2 mi SW 11.5 mph - N/A   Mostly Cloudy
4:00 AM 42 °F - 40 °F 88% 29.64 in 16 mi SW 11.2 mph - -   Scattered Clouds
4:25 AM 42.8 °F 37.0 °F 39.2 °F 87% 29.62 in 6.2 mi SW 10.4 mph - N/A   Overcast
4:55 AM 42.8 °F 37.0 °F 39.2 °F 87% 29.65 in 6.2 mi SW 10.4 mph - N/A   Overcast
5:00 AM 42 °F - 40 °F 88% 29.66 in 14 mi SW 11.2 mph - -   Overcast
5:25 AM 42.8 °F 36.6 °F 39.2 °F 87% 29.65 in 6.2 mi SW 11.5 mph - N/A   Mostly Cloudy
5:55 AM 42.8 °F 36.2 °F 39.2 °F 87% 29.65 in 6.2 mi SW 12.7 mph - N/A   Mostly Cloudy
6:00 AM 42 °F - 39 °F 86% 29.68 in 13 mi SW 13.4 mph - -   Scattered Clouds
6:25 AM 42.8 °F 35.8 °F 39.2 °F 87% 29.65 in 6.2 mi SW 13.8 mph - N/A   Unknown
6:55 AM 42.8 °F 36.2 °F 39.2 °F 87% 29.68 in 6.2 mi SW 12.7 mph - N/A   Overcast
7:00 AM 42 °F - 39 °F 83% 29.69 in 11 mi SW 11.2 mph - -   Partly Cloudy
7:25 AM 41.0 °F 34.3 °F 39.2 °F 93% 29.68 in 6.2 mi SW 11.5 mph - N/A   Unknown
7:55 AM 41.0 °F 33.5 °F 39.2 °F 93% 29.71 in 6.2 mi SW 13.8 mph - N/A   Unknown
8:00 AM 41 °F - 38 °F 85% 29.72 in 11 mi SW 13.4 mph - -  
8:25 AM 41.0 °F 34.3 °F 37.4 °F 87% 29.71 in 6.2 mi SW 11.5 mph - N/A   Scattered Clouds
8:55 AM 41.0 °F 34.3 °F 37.4 °F 87% 29.74 in 6.2 mi SW 11.5 mph - N/A   Unknown
9:00 AM 42 °F - 38 °F 81% 29.75 in 10 mi SW 11.2 mph - -   Scattered Clouds
9:25 AM 42.8 °F 37.0 °F 39.2 °F 87% 29.74 in 6.2 mi SW 10.4 mph - N/A   Unknown
9:55 AM 42.8 °F 37.0 °F 39.2 °F 87% 29.74 in 6.2 mi SW 10.4 mph - N/A   Unknown
10:00 AM 43 °F - 39 °F 80% 29.77 in 11 mi SW 11.2 mph - -  
10:25 AM 44.6 °F 38.4 °F 39.2 °F 81% 29.77 in 6.2 mi SW 12.7 mph - N/A   Unknown
10:55 AM 44.6 °F 37.4 °F 41.0 °F 87% 29.77 in 6.2 mi WSW 16.1 mph - N/A   Partly Cloudy
11:00 AM 46 °F - 40 °F 74% 29.78 in 11 mi WSW 15.7 mph - -   Scattered Clouds
11:25 AM 46.4 °F 39.2 °F 41.0 °F 81% 29.77 in 6.2 mi SW 18.4 mph - N/A   Partly Cloudy
11:55 AM 46.4 °F 39.8 °F 41.0 °F 81% 29.77 in 6.2 mi WSW 16.1 mph - N/A   Partly Cloudy
12:00 PM 47 °F - 40 °F 68% 29.81 in 12 mi WSW 17.9 mph - -   Partly Cloudy
12:25 PM 48.2 °F - 39.2 °F 71% 29.80 in 6.2 mi WSW 19.6 mph - N/A   Scattered Clouds
12:55 PM 48.2 °F - 39.2 °F 71% 29.80 in 6.2 mi WSW 17.3 mph - N/A   Mostly Cloudy
1:00 PM 49 °F - 39 °F 59% 29.81 in 11 mi West 17.9 mph - -   Partly Cloudy
1:25 PM 48.2 °F - 37.4 °F 66% 29.80 in 6.2 mi West 17.3 mph - N/A   Mostly Cloudy
1:55 PM 48.2 °F - 35.6 °F 62% 29.80 in 6.2 mi WSW 17.3 mph - N/A   Unknown
2:00 PM 49 °F - 37 °F 53% 29.81 in 17 mi WSW 17.9 mph - -  
2:25 PM 50.0 °F - 35.6 °F 58% 29.80 in 6.2 mi West 16.1 mph - N/A   Partly Cloudy
2:55 PM 50.0 °F - 33.8 °F 54% 29.80 in 6.2 mi WSW 17.3 mph - N/A   Unknown
3:00 PM 50 °F - 34 °F 43% 29.80 in 16 mi WSW 15.7 mph - -  
3:25 PM 48.2 °F - 35.6 °F 62% 29.80 in 6.2 mi WSW 16.1 mph - N/A   Partly Cloudy
3:55 PM 46.4 °F 41.1 °F 37.4 °F 71% 29.80 in 6.2 mi WSW 11.5 mph - N/A   Partly Cloudy
4:00 PM 47 °F - 37 °F 59% 29.81 in 19 mi WSW 11.2 mph - -   Scattered Clouds
4:25 PM 48.2 °F - 37.4 °F 66% 29.80 in 6.2 mi WSW 10.4 mph - N/A   Partly Cloudy
4:55 PM 46.4 °F 41.1 °F 37.4 °F 71% 29.80 in 6.2 mi WSW 11.5 mph - N/A   Scattered Clouds
5:00 PM 47 °F - 38 °F 63% 29.81 in 17 mi WSW 8.9 mph - -   Scattered Clouds
5:25 PM 46.4 °F 41.9 °F 37.4 °F 71% 29.80 in 6.2 mi West 9.2 mph - N/A   Scattered Clouds
5:55 PM 44.6 °F 41.4 °F 37.4 °F 76% 29.80 in 6.2 mi WSW 5.8 mph - N/A   Overcast
6:00 PM 45 °F - 38 °F 68% 29.81 in 17 mi WSW 6.7 mph - -   Partly Cloudy
6:25 PM 44.6 °F 40.7 °F 37.4 °F 76% 29.80 in 6.2 mi SW 6.9 mph - N/A   Partly Cloudy
6:55 PM 42.8 °F 39.3 °F 37.4 °F 81% 29.80 in 6.2 mi SW 5.8 mph - N/A   Unknown
7:00 PM 43 °F - 36 °F 70% 29.83 in 18 mi SW 4.5 mph - -   Partly Cloudy
7:25 PM 42.8 °F 40.1 °F 35.6 °F 76% 29.83 in 6.2 mi SW 4.6 mph - N/A   Unknown
7:55 PM 42.8 °F 39.3 °F 35.6 °F 76% 29.83 in 6.2 mi SSW 5.8 mph - N/A   Scattered Clouds
8:00 PM 43 °F - 36 °F 67% 29.83 in 19 mi SW 6.7 mph - -   Scattered Clouds
8:25 PM 42.8 °F 39.3 °F 37.4 °F 81% 29.83 in 6.2 mi SSW 5.8 mph - N/A   Unknown
8:55 PM 44.6 °F 40.7 °F 37.4 °F 76% 29.83 in 6.2 mi SSW 6.9 mph - N/A   Scattered Clouds
9:00 PM 44 °F - 38 °F 72% 29.84 in 19 mi SSW 4.5 mph - -   Mostly Cloudy
9:25 PM 42.8 °F 40.1 °F 37.4 °F 81% 29.83 in 6.2 mi SSW 4.6 mph - N/A   Overcast
9:55 PM 42.8 °F 41.1 °F 37.4 °F 81% 29.83 in 6.2 mi South 3.5 mph - N/A   Mostly Cloudy
10:00 PM 41 °F - 37 °F 81% 29.84 in 17 mi South 2.2 mph - -   Partly Cloudy
10:25 PM 37.4 °F - 35.6 °F 93% 29.83 in 6.2 mi ESE 1.2 mph - N/A   Partly Cloudy
10:55 PM 35.6 °F - 33.8 °F 93% 29.83 in 6.2 mi SE 2.3 mph - N/A   Unknown
11:00 PM 37 °F - 36 °F 96% 29.84 in 12 mi SSE 4.5 mph - -  
11:25 PM 35.6 °F - 35.6 °F 100% 29.83 in 6.2 mi SE 2.3 mph - N/A   Scattered Clouds
11:55 PM 33.8 °F - 32.0 °F 93% 29.83 in 6.2 mi South 2.3 mph - N/A   Mostly Cloudy